Other Public Products
Issued by NWS Charleston, SC

Current Version | Previous Version | Text Only | Print | Product List | Glossary On
Versions: 1 2 3 4 5 6 7 8 9 10 11 12 13 14 15 16 17 18 19 20 21 22 23 24 25 26 27 28 29 30 31 32 33 34 35 36 37 38 39 40 41 42 43 44 45 46 47 48 49 50
122 FPUS82 KCHS 190827 OPUCHS TEST...KCHS/KSAV Gateway Observations...TEST National Weather Service Charleston SC 300 AM EST SUN NOV 19 2017 NOTE: "fair" indicates few or no clouds below 12,000 feet with no significant weather and/or obstructions to visibility. SCZ050-WAZ558-NCZ071-TXZ119-213-PAZ071-DCZ001-FLZ074-172-MI076- NYZ176-178-MAZ016-IL014-TNZ027-NJZ106-GAZ044-MD014-190900- ...Gateway Observations for Charleston International... CITY SKY/WX TMP DP RH WIND PRES REMARKS Chas Airport CLEAR 64 57 78 SW20G26 29.72F Seattle CLOUDY 42 36 79 S5 30.10S Charlotte LGT RAIN 63 59 87 W8 29.61R Dallas DFW CLEAR 47 35 63 NW10 30.29S Dallas Love CLEAR 47 35 63 NW6 30.31R Philladelphia RAIN 59 55 87 SW16G28 29.34F Wash National CLOUDY 58 55 90 S15G24 29.32F Baltimore CLOUDY 58 56 93 S13G20 29.29F Miami PTCLDY 71 67 87 NW3 29.94F Detroit CLOUDY 38 31 76 NW23G29 29.64R WCI 27 Newark RAIN 58 53 84 SW17G24 29.31F Laguardia LGT RAIN 59 53 80 SW17G26 29.30F J F K LGT RAIN 56 55 97 S23 29.34F Boston Logan CLOUDY 55 53 93 S13 29.34F Ft. Lauderdale PTCLDY 68 67 96 NW6 29.94S Chicago O`Hare CLOUDY 35 25 66 NW15 29.88R WCI 25 Chicago Midway CLOUDY 36 26 67 NW17G23 29.88R WCI 26 Houston Bush CLEAR 54 35 48 N16 30.23R Houston Hobby PTCLDY 54 36 50 N17G30 30.21R Nashville CLOUDY 44 32 62 NW10 30.02R Atlanta CLOUDY 49 42 77 NW22G31 29.87R $$ GAZ044-118-TXZ119-213-NCZ071-DCZ001-MDZ014-506-PAZ021-071-NJZ106- NYZ176-178-MAZ106-OHZ011-021-055-MIZ076-KYZ091-ILZ014-INZ047- MNZ060-ONZ431-190900- ...Gateway Observations for Savannah International... CITY SKY/WX TMP DP RH WIND PRES REMARKS Savannah Arpt CLEAR 63 59 87 SW12G22 29.77F Atlanta CLOUDY 49 42 77 NW22G31 29.87R Charlotte LGT RAIN 63 59 87 W8 29.61R Dallas DFW CLEAR 47 35 63 NW10 30.29S Houston Bush CLEAR 54 35 48 N16 30.23R Wash National CLOUDY 58 55 90 S15G24 29.32F Wash Dulles CLOUDY 57 54 89 S15 29.31F Baltimore CLOUDY 58 56 93 S13G20 29.29F Philadelphia RAIN 59 55 87 SW16G28 29.34F Newark RAIN 58 53 84 SW17G24 29.31F Laguardia LGT RAIN 59 53 80 SW17G26 29.30F J F K LGT RAIN 56 55 97 S23 29.34F Boston CLOUDY 55 53 93 S13 29.34F Pittsburg LGT RAIN 37 35 92 W20G25 29.51R WCI 27 Akron LGT RAIN 38 34 85 NW18G26 29.57R WCI 28 Cleveland CLOUDY 41 33 73 NW26G32 29.61R Cincinnati CLOUDY 39 35 86 W16 29.85R WCI 30 Columbus CLOUDY 40 36 84 NW13G21 29.75R WCI 33 Detroit CLOUDY 38 31 76 NW23G29 29.64R WCI 27 Chicago O`Hare CLOUDY 35 25 66 NW15 29.88R WCI 25 Minneapolis CLEAR 20 11 68 NW10 30.07R WCI 9 Indianapolis CLOUDY 38 29 70 NW15G22 29.90R WCI 29 Toronto Canada CLOUDY 34 32 93 N24G33 29.29R WCI 21 $$

USA.gov is the U.S. government's official web portal to all federal, state and local government web resources and services.